Year,Month,Day,Hour,Minute,Value (Times are PST for temperature in C)
2010,08,17,00,00,19.40
2010,08,17,00,01,19.40
2010,08,17,00,02,19.40
2010,08,17,00,03,19.40
2010,08,17,00,04,19.40
2010,08,17,00,05,19.40
2010,08,17,00,06,19.40
2010,08,17,00,07,19.40
2010,08,17,00,08,19.40
2010,08,17,00,09,19.40
2010,08,17,00,10,19.40
2010,08,17,00,11,19.40
2010,08,17,00,12,19.40
2010,08,17,00,13,19.40
2010,08,17,00,14,19.40
2010,08,17,00,15,19.40
2010,08,17,00,16,19.30
2010,08,17,00,17,19.30
2010,08,17,00,18,19.30
2010,08,17,00,19,19.30
2010,08,17,00,20,19.30
2010,08,17,00,21,19.30
2010,08,17,00,22,19.30
2010,08,17,00,23,19.30
2010,08,17,00,24,19.20
2010,08,17,00,25,19.20
2010,08,17,00,26,19.20
2010,08,17,00,27,19.10
2010,08,17,00,28,19.10
2010,08,17,00,29,19.10
2010,08,17,00,30,19.10
2010,08,17,00,31,19.10
2010,08,17,00,32,19.10
2010,08,17,00,33,19.00
2010,08,17,00,34,19.00
2010,08,17,00,35,19.00
2010,08,17,00,36,18.90
2010,08,17,00,37,18.90
2010,08,17,00,38,18.90
2010,08,17,00,39,18.90
2010,08,17,00,40,18.90
2010,08,17,00,41,18.90
2010,08,17,00,42,18.90
2010,08,17,00,43,18.90
2010,08,17,00,44,18.90
2010,08,17,00,45,18.90
2010,08,17,00,46,18.90
2010,08,17,00,47,18.90
2010,08,17,00,48,19.00
2010,08,17,00,49,19.00
2010,08,17,00,50,19.00
2010,08,17,00,51,19.00
2010,08,17,00,52,19.00
2010,08,17,00,53,19.00
2010,08,17,00,54,19.00
2010,08,17,00,55,18.90
2010,08,17,00,56,18.90
2010,08,17,00,57,18.90
2010,08,17,00,58,18.90
2010,08,17,00,59,18.90
2010,08,17,01,00,18.90
2010,08,17,01,01,18.80
2010,08,17,01,02,18.80
2010,08,17,01,03,18.80
2010,08,17,01,04,18.80
2010,08,17,01,05,18.80
2010,08,17,01,06,18.80
2010,08,17,01,07,18.80
2010,08,17,01,08,18.80
2010,08,17,01,09,18.80
2010,08,17,01,10,18.80
2010,08,17,01,11,18.80
2010,08,17,01,12,18.80
2010,08,17,01,13,18.80
2010,08,17,01,14,18.80
2010,08,17,01,15,18.90
2010,08,17,01,16,18.90
2010,08,17,01,17,18.90
2010,08,17,01,18,18.90
2010,08,17,01,19,19.00
2010,08,17,01,20,19.00
2010,08,17,01,21,19.00
2010,08,17,01,22,19.00
2010,08,17,01,23,18.90
2010,08,17,01,24,18.90
2010,08,17,01,25,18.90
2010,08,17,01,26,18.90
2010,08,17,01,27,18.80
2010,08,17,01,28,18.80
2010,08,17,01,29,18.80
2010,08,17,01,30,18.80
2010,08,17,01,31,18.70
2010,08,17,01,32,18.70
2010,08,17,01,33,18.70
2010,08,17,01,34,18.60
2010,08,17,01,35,18.60
2010,08,17,01,36,18.50
2010,08,17,01,37,18.50
2010,08,17,01,38,18.40
2010,08,17,01,39,18.40
2010,08,17,01,40,18.30
2010,08,17,01,41,18.30
2010,08,17,01,42,18.30
2010,08,17,01,43,18.30
2010,08,17,01,44,18.30
2010,08,17,01,45,18.30
2010,08,17,01,46,18.20
2010,08,17,01,47,18.20
2010,08,17,01,48,18.20
2010,08,17,01,49,18.20
2010,08,17,01,50,18.20
2010,08,17,01,51,18.10
2010,08,17,01,52,18.10
2010,08,17,01,53,18.00
2010,08,17,01,54,18.00
2010,08,17,01,55,18.00
2010,08,17,01,56,18.00
2010,08,17,01,57,17.90
2010,08,17,01,58,17.90
2010,08,17,01,59,17.90
2010,08,17,02,00,17.80
2010,08,17,02,01,17.80
2010,08,17,02,02,17.80
2010,08,17,02,03,17.90
2010,08,17,02,04,17.90
2010,08,17,02,05,17.90
2010,08,17,02,06,17.90
2010,08,17,02,07,17.80
2010,08,17,02,08,17.80
2010,08,17,02,09,17.80
2010,08,17,02,10,17.70
2010,08,17,02,11,17.70
2010,08,17,02,12,17.70
2010,08,17,02,13,17.60
2010,08,17,02,14,17.60
2010,08,17,02,15,17.60
2010,08,17,02,16,17.50
2010,08,17,02,17,17.50
2010,08,17,02,18,17.40
2010,08,17,02,19,17.40
2010,08,17,02,20,17.40
2010,08,17,02,21,17.40
2010,08,17,02,22,17.40
2010,08,17,02,23,17.40
2010,08,17,02,24,17.40
2010,08,17,02,25,17.40
2010,08,17,02,26,17.40
2010,08,17,02,27,17.40
2010,08,17,02,28,17.40
2010,08,17,02,29,17.40
2010,08,17,02,30,17.40
2010,08,17,02,31,17.40
2010,08,17,02,32,17.50
2010,08,17,02,33,17.60
2010,08,17,02,34,17.70
2010,08,17,02,35,17.70
2010,08,17,02,36,17.60
2010,08,17,02,37,17.60
2010,08,17,02,38,17.60
2010,08,17,02,39,17.50
2010,08,17,02,40,17.50
2010,08,17,02,41,17.40
2010,08,17,02,42,17.40
2010,08,17,02,43,17.40
2010,08,17,02,44,17.40
2010,08,17,02,45,17.40
2010,08,17,02,46,17.40
2010,08,17,02,47,17.40
2010,08,17,02,48,17.40
2010,08,17,02,49,17.30
2010,08,17,02,50,17.30
2010,08,17,02,51,17.30
2010,08,17,02,52,17.30
2010,08,17,02,53,17.20
2010,08,17,02,54,17.20
2010,08,17,02,55,17.20
2010,08,17,02,56,17.20
2010,08,17,02,57,17.20
2010,08,17,02,58,17.20
2010,08,17,02,59,17.20
2010,08,17,03,00,17.20
2010,08,17,03,01,17.30
2010,08,17,03,02,17.30
2010,08,17,03,06,17.40
2010,08,17,03,07,17.40
2010,08,17,03,08,17.40
2010,08,17,03,09,17.40
2010,08,17,03,10,17.40
2010,08,17,03,11,17.40
2010,08,17,03,12,17.40
2010,08,17,03,13,17.40
2010,08,17,03,14,17.40
2010,08,17,03,15,17.40
2010,08,17,03,16,17.40
2010,08,17,03,17,17.40
2010,08,17,03,18,17.40
2010,08,17,03,19,17.30
2010,08,17,03,20,17.30
2010,08,17,03,21,17.20
2010,08,17,03,22,17.20
2010,08,17,03,23,17.10
2010,08,17,03,24,17.10
2010,08,17,03,25,17.00
2010,08,17,03,26,16.90
2010,08,17,03,27,16.90
2010,08,17,03,28,16.90
2010,08,17,03,29,16.80
2010,08,17,03,30,16.80
2010,08,17,03,31,16.80
2010,08,17,03,32,16.80
2010,08,17,03,33,16.80
2010,08,17,03,34,16.80
2010,08,17,03,35,16.70
2010,08,17,03,36,16.70
2010,08,17,03,37,16.70
2010,08,17,03,38,16.60
2010,08,17,03,39,16.60
2010,08,17,03,40,16.50
2010,08,17,03,41,16.50
2010,08,17,03,42,16.40
2010,08,17,03,43,16.40
2010,08,17,03,44,16.30
2010,08,17,03,45,16.30
2010,08,17,03,46,16.30
2010,08,17,03,47,16.30
2010,08,17,03,48,16.30
2010,08,17,03,49,16.20
2010,08,17,03,50,16.20
2010,08,17,03,51,16.30
2010,08,17,03,52,16.30
2010,08,17,03,53,16.40
2010,08,17,03,54,16.40
2010,08,17,03,55,16.40
2010,08,17,03,56,16.40
2010,08,17,03,57,16.50
2010,08,17,03,58,16.60
2010,08,17,03,59,16.60
2010,08,17,04,00,16.60
2010,08,17,04,01,16.50
2010,08,17,04,02,16.50
2010,08,17,04,03,16.50
2010,08,17,04,04,16.50
2010,08,17,04,05,16.40
2010,08,17,04,06,16.40
2010,08,17,04,07,16.40
2010,08,17,04,08,16.30
2010,08,17,04,09,16.30
2010,08,17,04,10,16.40
2010,08,17,04,11,16.40
2010,08,17,04,12,16.40
2010,08,17,04,13,16.40
2010,08,17,04,14,16.30
2010,08,17,04,15,16.30
2010,08,17,04,16,16.20
2010,08,17,04,17,16.20
2010,08,17,04,18,16.10
2010,08,17,04,19,16.10
2010,08,17,04,20,16.00
2010,08,17,04,21,16.00
2010,08,17,04,22,15.90
2010,08,17,04,23,15.90
2010,08,17,04,24,15.90
2010,08,17,04,25,15.90
2010,08,17,04,26,15.90
2010,08,17,04,27,15.90
2010,08,17,04,28,15.90
2010,08,17,04,29,15.90
2010,08,17,04,30,15.90
2010,08,17,04,31,15.90
2010,08,17,04,32,15.90
2010,08,17,04,33,15.90
2010,08,17,04,34,15.90
2010,08,17,04,35,15.90
2010,08,17,04,36,15.90
2010,08,17,04,37,15.90
2010,08,17,04,38,15.90
2010,08,17,04,39,15.80
2010,08,17,04,40,15.90
2010,08,17,04,41,15.90
2010,08,17,04,42,15.90
2010,08,17,04,43,15.90
2010,08,17,04,44,16.00
2010,08,17,04,45,16.00
2010,08,17,04,46,16.00
2010,08,17,04,47,16.10
2010,08,17,04,48,16.10
2010,08,17,04,49,16.20
2010,08,17,04,50,16.20
2010,08,17,04,51,16.30
2010,08,17,04,52,16.30
2010,08,17,04,53,16.30
2010,08,17,04,54,16.40
2010,08,17,04,55,16.40
2010,08,17,04,56,16.40
2010,08,17,04,57,16.30
2010,08,17,04,58,16.30
2010,08,17,04,59,16.20
2010,08,17,05,00,16.20
2010,08,17,05,01,16.10
2010,08,17,05,02,16.00
2010,08,17,05,03,15.90
2010,08,17,05,04,15.80
2010,08,17,05,05,15.70
2010,08,17,05,06,15.70
2010,08,17,05,07,15.60
2010,08,17,05,08,15.60
2010,08,17,05,09,15.60
2010,08,17,05,10,15.60
2010,08,17,05,11,15.60
2010,08,17,05,12,15.60
2010,08,17,05,13,15.60
2010,08,17,05,14,15.60
2010,08,17,05,15,15.60
2010,08,17,05,16,15.60
2010,08,17,05,17,15.60
2010,08,17,05,18,15.60
2010,08,17,05,19,15.50
2010,08,17,05,20,15.50
2010,08,17,05,21,15.50
2010,08,17,05,22,15.50
2010,08,17,05,23,15.40
2010,08,17,05,24,15.40
2010,08,17,05,25,15.40
2010,08,17,05,26,15.40
2010,08,17,05,27,15.40
2010,08,17,05,28,15.40
2010,08,17,05,29,15.40
2010,08,17,05,30,15.40
2010,08,17,05,31,15.40
2010,08,17,05,32,15.40
2010,08,17,05,33,15.40
2010,08,17,05,34,15.50
2010,08,17,05,35,15.50
2010,08,17,05,36,15.60
2010,08,17,05,37,15.60
2010,08,17,05,38,15.70
2010,08,17,05,39,15.70
2010,08,17,05,40,15.70
2010,08,17,05,41,15.70
2010,08,17,05,42,15.70
2010,08,17,05,43,15.60
2010,08,17,05,44,15.60
2010,08,17,05,45,15.60
2010,08,17,05,46,15.60
2010,08,17,05,47,15.60
2010,08,17,05,48,15.60
2010,08,17,05,49,15.60
2010,08,17,05,50,15.50
2010,08,17,05,51,15.40
2010,08,17,05,52,15.40
2010,08,17,05,53,15.30
2010,08,17,05,54,15.30
2010,08,17,05,55,15.20
2010,08,17,05,56,15.20
2010,08,17,05,57,15.10
2010,08,17,05,58,15.00
2010,08,17,05,59,15.00
2010,08,17,06,00,15.00
2010,08,17,06,01,15.00
2010,08,17,06,02,15.00
2010,08,17,06,03,15.00
2010,08,17,06,04,15.00
2010,08,17,06,05,15.00
2010,08,17,06,06,15.00
2010,08,17,06,07,15.00
2010,08,17,06,08,15.00
2010,08,17,06,09,15.00
2010,08,17,06,10,15.00
2010,08,17,06,11,15.00
2010,08,17,06,12,15.00
2010,08,17,06,13,15.00
2010,08,17,06,14,15.00
2010,08,17,06,15,15.00
2010,08,17,06,16,15.00
2010,08,17,06,17,14.90
2010,08,17,06,18,14.90
2010,08,17,06,19,14.80
2010,08,17,06,20,14.80
2010,08,17,06,21,14.80
2010,08,17,06,22,14.70
2010,08,17,06,23,14.70
2010,08,17,06,24,14.70
2010,08,17,06,25,14.70
2010,08,17,06,26,14.70
2010,08,17,06,27,14.60
2010,08,17,06,28,14.60
2010,08,17,06,29,14.60
2010,08,17,06,30,14.60
2010,08,17,06,31,14.70
2010,08,17,06,32,14.70
2010,08,17,06,33,14.70
2010,08,17,06,34,14.70
2010,08,17,06,35,14.70
2010,08,17,06,36,14.80
2010,08,17,06,37,14.80
2010,08,17,06,38,14.80
2010,08,17,06,39,14.80
2010,08,17,06,40,14.90
2010,08,17,06,41,14.90
2010,08,17,06,42,14.90
2010,08,17,06,43,15.00
2010,08,17,06,44,15.00
2010,08,17,06,45,15.00
2010,08,17,06,46,15.00
2010,08,17,06,47,15.00
2010,08,17,06,48,14.90
2010,08,17,06,49,14.90
2010,08,17,06,50,14.90
2010,08,17,06,51,14.90
2010,08,17,06,52,14.90
2010,08,17,06,53,14.90
2010,08,17,06,54,14.90
2010,08,17,06,55,14.90
2010,08,17,06,56,14.90
2010,08,17,06,57,14.90
2010,08,17,06,58,15.00
2010,08,17,06,59,15.00
2010,08,17,07,00,15.00
2010,08,17,07,01,15.00
2010,08,17,07,02,15.00
2010,08,17,07,03,15.10
2010,08,17,07,04,15.20
2010,08,17,07,05,15.20
2010,08,17,07,06,15.30
2010,08,17,07,07,15.30
2010,08,17,07,08,15.40
2010,08,17,07,09,15.40
2010,08,17,07,10,15.40
2010,08,17,07,11,15.50
2010,08,17,07,12,15.60
2010,08,17,07,13,15.60
2010,08,17,07,14,15.60
2010,08,17,07,15,15.70
2010,08,17,07,16,15.70
2010,08,17,07,17,15.70
2010,08,17,07,18,15.80
2010,08,17,07,19,15.80
2010,08,17,07,20,15.80
2010,08,17,07,21,15.90
2010,08,17,07,22,15.90
2010,08,17,07,23,16.00
2010,08,17,07,24,16.00
2010,08,17,07,25,16.10
2010,08,17,07,26,16.10
2010,08,17,07,27,16.20
2010,08,17,07,28,16.20
2010,08,17,07,29,16.30
2010,08,17,07,30,16.40
2010,08,17,07,31,16.40
2010,08,17,07,32,16.50
2010,08,17,07,33,16.60
2010,08,17,07,34,16.70
2010,08,17,07,35,16.80
2010,08,17,07,36,16.80
2010,08,17,07,37,16.90
2010,08,17,07,38,17.00
2010,08,17,07,39,17.10
2010,08,17,07,40,17.20
2010,08,17,07,41,17.30
2010,08,17,07,42,17.40
2010,08,17,07,43,17.50
2010,08,17,07,44,17.60
2010,08,17,07,45,17.70
2010,08,17,07,46,17.70
2010,08,17,07,47,17.80
2010,08,17,07,48,17.90
2010,08,17,07,49,18.00
2010,08,17,07,50,18.10
2010,08,17,07,51,18.20
2010,08,17,07,52,18.20
2010,08,17,07,53,18.30
2010,08,17,07,54,18.30
2010,08,17,07,55,18.40
2010,08,17,07,56,18.50
2010,08,17,07,57,18.50
2010,08,17,07,58,18.60
2010,08,17,07,59,18.70
2010,08,17,08,00,18.70
2010,08,17,08,01,18.80
2010,08,17,08,02,18.90
2010,08,17,08,03,19.00
2010,08,17,08,04,19.10
2010,08,17,08,05,19.10
2010,08,17,08,06,19.30
2010,08,17,08,07,19.40
2010,08,17,08,08,19.60
2010,08,17,08,09,19.70
2010,08,17,08,10,19.90
2010,08,17,08,11,20.00
2010,08,17,08,12,20.10
2010,08,17,08,13,20.30
2010,08,17,08,14,20.50
2010,08,17,08,15,20.60
2010,08,17,08,16,20.70
2010,08,17,08,17,20.80
2010,08,17,08,18,21.00
2010,08,17,08,19,21.10
2010,08,17,08,20,21.20
2010,08,17,08,21,21.20
2010,08,17,08,22,21.40
2010,08,17,08,23,21.50
2010,08,17,08,24,21.60
2010,08,17,08,25,21.80
2010,08,17,08,26,21.80
2010,08,17,08,27,21.90
2010,08,17,08,28,22.00
2010,08,17,08,29,22.00
2010,08,17,08,30,21.90
2010,08,17,08,31,21.90
2010,08,17,08,32,21.80
2010,08,17,08,33,21.80
2010,08,17,08,34,21.90
2010,08,17,08,35,21.90
2010,08,17,08,36,21.90
2010,08,17,08,37,21.90
2010,08,17,08,38,21.90
2010,08,17,08,39,21.80
2010,08,17,08,40,21.80
2010,08,17,08,41,21.70
2010,08,17,08,42,21.60
2010,08,17,08,43,21.50
2010,08,17,08,44,21.50
2010,08,17,08,45,21.50
2010,08,17,08,46,21.40
2010,08,17,08,47,21.40
2010,08,17,08,48,21.30
2010,08,17,08,49,21.30
2010,08,17,08,50,21.40
2010,08,17,08,51,21.40
2010,08,17,08,52,21.40
2010,08,17,08,53,21.50
2010,08,17,08,54,21.50
2010,08,17,08,55,21.50
2010,08,17,08,56,21.50
2010,08,17,08,57,21.50
2010,08,17,08,58,21.50
2010,08,17,08,59,21.40
2010,08,17,09,00,21.30
2010,08,17,09,01,21.30
2010,08,17,09,02,21.20
2010,08,17,09,03,21.20
2010,08,17,09,04,21.20
2010,08,17,09,05,21.20
2010,08,17,09,06,21.20
2010,08,17,09,07,21.20
2010,08,17,09,08,21.20
2010,08,17,09,09,21.30
2010,08,17,09,10,21.30
2010,08,17,09,11,21.40
2010,08,17,09,12,21.50
2010,08,17,09,13,21.60
2010,08,17,09,14,21.70
2010,08,17,09,15,21.80
2010,08,17,09,16,21.90
2010,08,17,09,17,22.00
2010,08,17,09,18,22.00
2010,08,17,09,19,22.00
2010,08,17,09,20,22.10
2010,08,17,09,21,22.10
2010,08,17,09,22,22.20
2010,08,17,09,23,22.20
2010,08,17,09,24,22.30
2010,08,17,09,25,22.30
2010,08,17,09,26,22.30
2010,08,17,09,27,22.20
2010,08,17,09,28,22.10
2010,08,17,09,29,22.00
2010,08,17,09,30,21.90
2010,08,17,09,31,21.90
2010,08,17,09,32,22.00
2010,08,17,09,33,22.10
2010,08,17,09,34,22.20
2010,08,17,09,35,22.30
2010,08,17,09,36,22.30
2010,08,17,09,37,22.40
2010,08,17,09,38,22.40
2010,08,17,09,39,22.50
2010,08,17,09,40,22.60
2010,08,17,09,41,22.70
2010,08,17,09,42,22.80
2010,08,17,09,43,22.90
2010,08,17,09,44,23.00
2010,08,17,09,45,23.10
2010,08,17,09,46,23.10
2010,08,17,09,47,23.20
2010,08,17,09,48,23.20
2010,08,17,09,49,23.20
2010,08,17,09,50,23.30
2010,08,17,09,51,23.30
2010,08,17,09,52,23.20
2010,08,17,09,53,23.20
2010,08,17,09,54,23.20
2010,08,17,09,55,23.30
2010,08,17,09,56,23.30
2010,08,17,09,57,23.30
2010,08,17,09,58,23.30
2010,08,17,09,59,23.30
2010,08,17,10,00,23.30
2010,08,17,10,01,23.30
2010,08,17,10,02,23.40
2010,08,17,10,03,23.50
2010,08,17,10,04,23.50
2010,08,17,10,05,23.50
2010,08,17,10,06,23.50
2010,08,17,10,07,23.50
2010,08,17,10,08,23.50
2010,08,17,10,09,23.40
2010,08,17,10,10,23.40
2010,08,17,10,11,23.40
2010,08,17,10,12,23.40
2010,08,17,10,13,23.40
2010,08,17,10,14,23.30
2010,08,17,10,15,23.30
2010,08,17,10,16,23.20
2010,08,17,10,17,23.30
2010,08,17,10,18,23.30
2010,08,17,10,19,23.40
2010,08,17,10,20,23.40
2010,08,17,10,21,23.50
2010,08,17,10,22,23.60
2010,08,17,10,23,23.50
2010,08,17,10,24,23.40
2010,08,17,10,25,23.40
2010,08,17,10,26,23.40
2010,08,17,10,27,23.40
2010,08,17,10,28,23.40
2010,08,17,10,29,23.30
2010,08,17,10,30,23.20
2010,08,17,10,31,23.20
2010,08,17,10,32,23.10
2010,08,17,10,33,23.10
2010,08,17,10,34,23.00
2010,08,17,10,35,22.90
2010,08,17,10,36,23.00
2010,08,17,10,37,23.00
2010,08,17,10,38,23.10
2010,08,17,10,39,23.20
2010,08,17,10,40,23.20
2010,08,17,10,41,23.30
2010,08,17,10,42,23.30
2010,08,17,10,43,23.30
2010,08,17,10,44,23.40
2010,08,17,10,45,23.60
2010,08,17,10,46,23.70
2010,08,17,10,47,23.80
2010,08,17,10,48,24.00
2010,08,17,10,49,24.00
2010,08,17,10,50,23.90
2010,08,17,10,51,23.90
2010,08,17,10,52,23.90
2010,08,17,10,53,23.80
2010,08,17,10,54,23.70
2010,08,17,10,55,23.60
2010,08,17,10,56,23.50
2010,08,17,10,57,23.40
2010,08,17,10,58,23.40
2010,08,17,10,59,23.40
2010,08,17,11,00,23.40
2010,08,17,11,01,23.40
2010,08,17,11,02,23.30
2010,08,17,11,03,23.40
2010,08,17,11,04,23.50
2010,08,17,11,05,23.50
2010,08,17,11,06,23.40
2010,08,17,11,07,23.40
2010,08,17,11,08,23.30
2010,08,17,11,09,23.40
2010,08,17,11,10,23.50
2010,08,17,11,11,23.60
2010,08,17,11,12,23.70
2010,08,17,11,13,23.70
2010,08,17,11,14,23.80
2010,08,17,11,15,23.90
2010,08,17,11,16,24.00
2010,08,17,11,17,23.90
2010,08,17,11,18,23.70
2010,08,17,11,19,23.50
2010,08,17,11,20,23.40
2010,08,17,11,21,23.40
2010,08,17,11,22,23.50
2010,08,17,11,23,23.50
2010,08,17,11,24,23.50
2010,08,17,11,25,23.60
2010,08,17,11,26,23.70
2010,08,17,11,27,23.90
2010,08,17,11,28,24.10
2010,08,17,11,29,24.30
2010,08,17,11,30,24.50
2010,08,17,11,31,24.50
2010,08,17,11,32,24.40
2010,08,17,11,33,24.30
2010,08,17,11,34,24.40
2010,08,17,11,35,24.40
2010,08,17,11,36,24.50
2010,08,17,11,37,24.50
2010,08,17,11,38,24.50
2010,08,17,11,39,24.60
2010,08,17,11,40,24.80
2010,08,17,11,41,24.90
2010,08,17,11,42,25.00
2010,08,17,11,43,25.00
2010,08,17,11,44,24.80
2010,08,17,11,45,24.70
2010,08,17,11,46,24.70
2010,08,17,11,47,24.60
2010,08,17,11,48,24.70
2010,08,17,11,49,24.60
2010,08,17,11,50,24.60
2010,08,17,11,51,24.70
2010,08,17,11,52,24.70
2010,08,17,11,53,24.80
2010,08,17,11,54,24.90
2010,08,17,11,55,24.90
2010,08,17,11,56,24.80
2010,08,17,11,57,24.70
2010,08,17,11,58,24.60
2010,08,17,11,59,24.40
2010,08,17,12,00,24.30
2010,08,17,12,01,24.30
2010,08,17,12,02,24.40
2010,08,17,12,03,24.40
2010,08,17,12,04,24.40
2010,08,17,12,05,24.40
2010,08,17,12,06,24.40
2010,08,17,12,07,24.40
2010,08,17,12,08,24.30
2010,08,17,12,09,24.20
2010,08,17,12,10,24.20
2010,08,17,12,11,24.20
2010,08,17,12,12,24.20
2010,08,17,12,13,24.10
2010,08,17,12,14,24.10
2010,08,17,12,15,24.10
2010,08,17,12,16,24.00
2010,08,17,12,17,23.90
2010,08,17,12,18,23.90
2010,08,17,12,19,24.00
2010,08,17,12,20,24.10
2010,08,17,12,21,24.20
2010,08,17,12,22,24.20
2010,08,17,12,23,24.20
2010,08,17,12,24,24.40
2010,08,17,12,25,24.50
2010,08,17,12,26,24.60
2010,08,17,12,27,24.60
2010,08,17,12,28,24.60
2010,08,17,12,29,24.50
2010,08,17,12,30,24.50
2010,08,17,12,31,24.50
2010,08,17,12,32,24.40
2010,08,17,12,33,24.30
2010,08,17,12,34,24.40
2010,08,17,12,35,24.50
2010,08,17,12,36,24.70
2010,08,17,12,37,24.80
2010,08,17,12,38,25.00
2010,08,17,12,39,25.20
2010,08,17,12,40,25.30
2010,08,17,12,41,25.20
2010,08,17,12,42,25.00
2010,08,17,12,43,24.90
2010,08,17,12,44,24.80
2010,08,17,12,45,24.90
2010,08,17,12,46,24.90
2010,08,17,12,47,25.00
2010,08,17,12,48,25.10
2010,08,17,12,49,24.90
2010,08,17,12,50,24.80
2010,08,17,12,51,24.70
2010,08,17,12,52,24.70
2010,08,17,12,53,24.60
2010,08,17,12,54,24.40
2010,08,17,12,55,24.40
2010,08,17,12,56,24.40
2010,08,17,12,57,24.50
2010,08,17,12,58,24.60
2010,08,17,12,59,24.60
2010,08,17,13,00,24.60
2010,08,17,13,01,24.70
2010,08,17,13,02,24.70
2010,08,17,13,03,24.80
2010,08,17,13,04,25.00
2010,08,17,13,05,25.20
2010,08,17,13,06,25.30
2010,08,17,13,07,25.40
2010,08,17,13,08,25.30
2010,08,17,13,09,25.20
2010,08,17,13,10,25.10
2010,08,17,13,11,25.00
2010,08,17,13,12,24.90
2010,08,17,13,13,24.80
2010,08,17,13,14,24.70
2010,08,17,13,15,24.70
2010,08,17,13,16,24.70
2010,08,17,13,17,24.70
2010,08,17,13,18,24.70
2010,08,17,13,19,24.60
2010,08,17,13,20,24.50
2010,08,17,13,21,24.50
2010,08,17,13,22,24.50
2010,08,17,13,23,24.60
2010,08,17,13,24,24.40
2010,08,17,13,25,24.20
2010,08,17,13,26,24.10
2010,08,17,13,27,24.00
2010,08,17,13,28,24.00
2010,08,17,13,29,24.00
2010,08,17,13,30,24.00
2010,08,17,13,31,24.10
2010,08,17,13,32,24.20
2010,08,17,13,33,24.30
2010,08,17,13,34,24.40
2010,08,17,13,35,24.40
2010,08,17,13,36,24.50
2010,08,17,13,37,24.60
2010,08,17,13,38,24.60
2010,08,17,13,39,24.70
2010,08,17,13,40,24.80
2010,08,17,13,41,24.90
2010,08,17,13,42,25.00
2010,08,17,13,43,24.90
2010,08,17,13,44,24.60
2010,08,17,13,45,24.60
2010,08,17,13,46,24.60
2010,08,17,13,47,24.60
2010,08,17,13,48,24.70
2010,08,17,13,49,24.70
2010,08,17,13,50,24.70
2010,08,17,13,51,24.80
2010,08,17,13,52,24.60
2010,08,17,13,53,24.40
2010,08,17,13,54,24.30
2010,08,17,13,55,24.20
2010,08,17,13,56,24.10
2010,08,17,13,57,23.90
2010,08,17,13,58,23.90
2010,08,17,13,59,24.00
2010,08,17,14,00,24.00
2010,08,17,14,01,24.00
2010,08,17,14,02,24.00
2010,08,17,14,03,24.00
2010,08,17,14,04,23.90
2010,08,17,14,05,23.90
2010,08,17,14,06,24.00
2010,08,17,14,07,24.00
2010,08,17,14,08,24.10
2010,08,17,14,09,24.30
2010,08,17,14,10,24.40
2010,08,17,14,11,24.60
2010,08,17,14,12,24.80
2010,08,17,14,13,25.00
2010,08,17,14,14,25.10
2010,08,17,14,15,25.30
2010,08,17,14,16,25.40
2010,08,17,14,17,25.40
2010,08,17,14,18,25.40
2010,08,17,14,19,25.40
2010,08,17,14,20,25.50
2010,08,17,14,21,25.50
2010,08,17,14,22,25.60
2010,08,17,14,23,25.70
2010,08,17,14,24,25.70
2010,08,17,14,25,25.70
2010,08,17,14,26,25.70
2010,08,17,14,27,25.80
2010,08,17,14,28,25.80
2010,08,17,14,29,25.80
2010,08,17,14,30,25.90
2010,08,17,14,31,25.90
2010,08,17,14,32,25.90
2010,08,17,14,33,26.00
2010,08,17,14,34,26.10
2010,08,17,14,35,26.20
2010,08,17,14,36,26.20
2010,08,17,14,37,26.30
2010,08,17,14,38,26.30
2010,08,17,14,39,26.30
2010,08,17,14,40,26.30
2010,08,17,14,41,26.20
2010,08,17,14,42,26.20
2010,08,17,14,43,26.10
2010,08,17,14,44,26.10
2010,08,17,14,45,26.20
2010,08,17,14,46,26.10
2010,08,17,14,47,26.00
2010,08,17,14,48,25.90
2010,08,17,14,49,25.90
2010,08,17,14,50,25.90
2010,08,17,14,51,25.90
2010,08,17,14,52,25.90
2010,08,17,14,53,25.90
2010,08,17,14,54,26.00
2010,08,17,14,55,26.10
2010,08,17,14,56,26.20
2010,08,17,14,57,26.10
2010,08,17,14,58,26.00
2010,08,17,14,59,25.90
2010,08,17,15,00,25.90
2010,08,17,15,01,25.90
2010,08,17,15,02,26.00
2010,08,17,15,03,26.10
2010,08,17,15,04,26.20
2010,08,17,15,05,26.20
2010,08,17,15,06,26.20
2010,08,17,15,07,26.20
2010,08,17,15,08,26.30
2010,08,17,15,09,26.40
2010,08,17,15,10,26.50
2010,08,17,15,11,26.60
2010,08,17,15,12,26.80
2010,08,17,15,13,26.90
2010,08,17,15,14,27.10
2010,08,17,15,15,27.10
2010,08,17,15,16,27.10
2010,08,17,15,17,27.10
2010,08,17,15,18,27.20
2010,08,17,15,19,27.30
2010,08,17,15,20,27.30
2010,08,17,15,21,27.40
2010,08,17,15,22,27.50
2010,08,17,15,23,27.60
2010,08,17,15,24,27.60
2010,08,17,15,25,27.70
2010,08,17,15,26,27.70
2010,08,17,15,27,27.60
2010,08,17,15,28,27.70
2010,08,17,15,29,27.80
2010,08,17,15,30,27.70
2010,08,17,15,31,27.50
2010,08,17,15,32,27.30
2010,08,17,15,33,27.10
2010,08,17,15,34,27.00
2010,08,17,15,35,26.90
2010,08,17,15,36,26.80
2010,08,17,15,37,26.70
2010,08,17,15,38,26.70
2010,08,17,15,39,26.60
2010,08,17,15,40,26.50
2010,08,17,15,41,26.30
2010,08,17,15,42,26.10
2010,08,17,15,43,26.00
2010,08,17,15,44,25.90
2010,08,17,15,45,26.00
2010,08,17,15,46,26.10
2010,08,17,15,47,26.20
2010,08,17,15,48,26.20
2010,08,17,15,49,26.20
2010,08,17,15,50,26.20
2010,08,17,15,51,26.20
2010,08,17,15,52,26.30
2010,08,17,15,53,26.30
2010,08,17,15,54,26.40
2010,08,17,15,55,26.50
2010,08,17,15,56,26.60
2010,08,17,15,57,26.70
2010,08,17,15,58,26.80
2010,08,17,15,59,26.90
2010,08,17,16,00,27.00
2010,08,17,16,01,27.00
2010,08,17,16,02,27.10
2010,08,17,16,03,27.20
2010,08,17,16,04,27.30
2010,08,17,16,05,27.20
2010,08,17,16,06,27.20
2010,08,17,16,07,27.30
2010,08,17,16,08,27.30
2010,08,17,16,09,27.30
2010,08,17,16,10,27.30
2010,08,17,16,11,27.20
2010,08,17,16,12,27.10
2010,08,17,16,13,26.90
2010,08,17,16,14,26.80
2010,08,17,16,15,26.70
2010,08,17,16,16,26.60
2010,08,17,16,17,26.50
2010,08,17,16,18,26.30
2010,08,17,16,19,26.20
2010,08,17,16,20,26.20
2010,08,17,16,21,26.20
2010,08,17,16,22,26.20
2010,08,17,16,23,26.20
2010,08,17,16,24,26.20
2010,08,17,16,25,26.20
2010,08,17,16,26,26.20
2010,08,17,16,27,26.20
2010,08,17,16,28,26.30
2010,08,17,16,29,26.50
2010,08,17,16,30,26.60
2010,08,17,16,31,26.70
2010,08,17,16,32,26.80
2010,08,17,16,33,26.70
2010,08,17,16,34,26.70
2010,08,17,16,35,26.70
2010,08,17,16,36,26.70
2010,08,17,16,37,26.70
2010,08,17,16,38,26.70
2010,08,17,16,39,26.80
2010,08,17,16,40,26.80
2010,08,17,16,41,26.80
2010,08,17,16,42,26.80
2010,08,17,16,43,26.80
2010,08,17,16,44,26.80
2010,08,17,16,45,26.80
2010,08,17,16,46,26.80
2010,08,17,16,47,26.80
2010,08,17,16,48,26.70
2010,08,17,16,49,26.60
2010,08,17,16,50,26.40
2010,08,17,16,51,26.30
2010,08,17,16,52,26.20
2010,08,17,16,53,26.10
2010,08,17,16,54,26.10
2010,08,17,16,55,26.20
2010,08,17,16,56,26.30
2010,08,17,16,57,26.40
2010,08,17,16,58,26.60
2010,08,17,16,59,26.70
2010,08,17,17,00,26.80
2010,08,17,17,01,26.90
2010,08,17,17,02,27.00
2010,08,17,17,03,27.10
2010,08,17,17,04,27.20
2010,08,17,17,05,27.30
2010,08,17,17,06,27.30
2010,08,17,17,07,27.40
2010,08,17,17,08,27.40
2010,08,17,17,09,27.40
2010,08,17,17,10,27.30
2010,08,17,17,11,27.40
2010,08,17,17,12,27.40
2010,08,17,17,13,27.40
2010,08,17,17,14,27.40
2010,08,17,17,15,27.40
2010,08,17,17,16,27.40
2010,08,17,17,17,27.50
2010,08,17,17,18,27.50
2010,08,17,17,19,27.60
2010,08,17,17,20,27.60
2010,08,17,17,21,27.60
2010,08,17,17,22,27.70